RH
18 17 17 16 16 17 18 19 17 15 14 13 11 10 8 7 6 6 7 8 8 8 7 7 5 4 4 3 4 17 32 34 35 40 42 44 46 46 48 47 47 56
21 18 18 18 16 16 18 19 19 17 16 14 13 11 9 7 7 6 7 9 10 9 8 7 6 5 3 3 5 9 20 31 36 39 47 56 55 48 48 45 42 52
22 21 20 19 18 18 18 18 20 18 17 16 13 11 9 8 8 7 7 9 10 10 9 7 6 6 3 5 11 15 21 32 37 35 35 44 49 41 36 38 42 53
21 20 20 21 21 20 20 21 21 19 18 16 16 17 14 9 8 8 8 10 10 9 8 7 6 5 6 12 22 25 25 29 31 33 32 34 47 48 33 32 44 54
19 14 16 19 20 20 21 22 21 20 18 15 20 28 23 13 9 8 8 10 11 10 9 7 6 8 12 20 31 34 34 38 39 48 57 50 45 42 30 36 57 62
15 8 8 11 13 15 17 20 21 20 20 20 24 29 24 14 9 7 8 11 13 11 10 8 7 10 15 29 50 58 56 61 61 63 74 69 54 46 39 46 60 58
11 5 6 8 9 11 11 14 17 18 26 33 29 23 17 12 10 9 9 13 14 12 10 9 9 9 12 34 72 90 83 82 80 72 73 74 73 71 66 65 66 58
7 5 9 11 13 14 12 13 14 15 27 34 25 16 13 11 13 13 12 14 16 13 10 10 13 15 17 40 81 101 95 91 88 83 81 80 82 86 85 84 83 76
6 7 13 17 19 19 17 18 16 15 20 23 17 13 12 10 14 16 16 18 18 14 13 13 19 27 35 57 88 101 99 95 91 91 92 87 86 90 89 87 89 85
6 9 16 21 23 21 22 23 22 20 20 19 15 13 12 14 19 22 22 23 20 15 14 15 27 48 63 78 94 97 94 95 92 91 92 89 87 88 86 83 83 81
6 11 19 24 25 23 23 23 28 31 29 23 19 18 21 24 28 28 26 26 23 18 15 13 30 62 82 90 94 90 89 95 95 92 91 90 88 86 83 81 82 84
7 13 22 28 27 25 23 25 40 49 38 27 27 30 32 34 33 33 31 29 26 22 17 13 25 53 76 88 93 91 91 97 97 94 92 90 89 88 86 86 89 90
8 15 26 33 31 27 24 29 47 54 40 32 37 40 41 41 39 38 36 33 29 26 22 16 17 32 54 72 83 87 90 95 95 92 89 89 90 90 89 89 89 87
7 15 28 37 34 29 28 34 46 52 46 43 48 50 49 48 46 45 41 37 35 30 26 21 16 19 31 46 60 72 81 88 92 90 84 85 91 93 90 89 87 84
6 15 30 40 38 33 33 38 45 52 53 51 52 54 53 52 52 52 49 44 41 37 31 26 21 17 19 26 37 52 66 75 81 86 83 78 81 86 86 84 84 84
6 15 32 43 42 38 38 42 47 54 55 54 55 56 54 55 57 58 60 56 50 44 37 31 26 21 18 19 23 35 49 57 64 75 80 71 63 66 76 81 84 87
5 14 31 43 46 44 44 46 50 53 54 55 60 60 58 61 65 66 68 66 59 53 46 38 33 27 22 20 19 24 32 40 46 55 65 64 52 47 61 79 85 86
5 12 28 42 47 48 49 50 51 53 54 57 64 65 61 65 70 69 69 68 64 60 54 47 42 35 29 24 20 20 22 27 33 37 43 49 44 38 50 70 80 82
6 10 25 40 46 47 50 52 53 55 54 55 61 65 62 63 68 67 65 66 65 63 59 54 49 44 39 32 26 22 20 20 24 28 31 35 36 34 39 53 68 79
6 8 20 36 45 47 48 50 53 55 54 53 55 61 63 63 63 62 62 63 63 63 62 59 55 51 46 41 35 28 23 20 19 21 24 28 31 32 33 38 52 73
6 7 15 29 40 46 47 48 50 53 56 56 54 56 62 64 63 61 63 64 63 61 61 61 60 57 52 48 43 37 31 26 21 19 19 22 25 29 32 32 37 54
5 7 11 18 28 37 42 45 48 50 54 57 57 57 59 63 63 62 64 67 66 63 60 58 58 58 57 54 49 44 39 33 28 24 21 20 21 24 29 33 32 38
4 5 6 9 13 20 27 34 42 48 51 54 56 57 57 58 60 62 65 67 66 64 61 57 54 55 57 58 56 51 46 40 35 31 27 23 22 22 25 31 34 35
3 2 3 4 4 7 11 17 26 37 47 52 53 54 56 58 59 59 62 65 64 63 60 57 55 54 53 55 59 58 53 48 42 38 34 31 27 25 25 29 34 36
2 2 1 2 2 2 4 6 11 19 31 42 49 52 54 57 58 55 55 59 62 62 58 54 54 56 54 51 55 60 60 57 51 46 43 40 35 31 29 29 32 34
2 2 2 2 2 2 2 3 6 10 16 24 36 47 53 56 56 53 51 53 57 59 58 54 51 53 55 52 50 55 62 63 60 56 53 50 46 40 36 32 30 30
Wind_Speed
15 14 12 12 12 12 12 12 13 14 14 14 14 14 15 15 14 15 15 15 16 16 16 18 19 21 23 26 28 28 27 27 27 26 27 27 28 31 32 32 32 32
15 14 13 13 13 13 13 12 13 14 15 15 15 14 14 14 15 15 16 16 16 17 17 18 18 19 21 23 26 28 28 26 26 26 26 27 28 30 31 31 32 31
14 14 13 13 13 13 13 13 14 14 15 15 16 15 15 15 15 16 17 17 17 18 18 18 18 19 20 22 23 25 26 26 25 26 27 26 27 29 30 30 31 32
14 13 13 13 13 13 13 13 14 15 15 15 16 16 15 15 16 16 17 18 19 19 20 19 18 19 20 21 21 23 25 25 25 25 26 26 27 28 29 29 30 32
14 14 14 13 13 13 13 14 15 16 17 17 16 15 16 16 17 17 17 18 18 19 20 19 19 19 20 21 21 23 24 24 24 23 23 25 28 28 27 28 29 31
15 16 15 14 14 14 14 14 15 16 17 17 15 15 16 17 16 16 17 17 17 17 18 19 19 20 21 21 21 22 21 21 22 23 22 24 26 26 27 28 28 30
17 17 17 16 15 15 16 16 16 16 16 15 15 16 16 15 15 15 16 17 17 16 17 18 20 20 21 22 21 20 20 19 20 22 23 24 25 25 26 27 28 29
18 17 17 17 16 16 17 17 17 17 15 15 17 18 15 13 14 15 16 17 16 16 16 18 19 19 19 21 20 19 19 18 18 19 21 23 24 24 25 25 26 27
19 17 17 17 17 17 17 17 18 18 17 18 18 17 14 13 13 14 16 16 15 15 16 17 18 19 19 19 19 19 19 18 18 18 18 19 20 21 22 23 23 24
18 17 16 16 16 17 17 17 17 17 17 17 16 15 13 12 12 13 15 15 14 14 15 17 18 19 19 18 18 19 19 19 18 18 17 16 17 17 18 19 19 20
18 17 16 15 16 16 16 16 15 15 15 14 13 12 10 10 11 13 14 14 14 13 14 16 18 19 19 19 20 20 20 19 19 18 17 17 17 16 16 16 17 17
17 16 16 15 15 15 15 14 12 12 13 11 10 9 8 9 10 11 12 13 13 13 14 15 18 20 20 20 21 20 19 19 19 18 17 17 17 16 15 15 15 15
17 16 15 15 15 14 14 12 10 11 12 10 8 8 7 7 8 9 10 11 11 12 13 14 17 21 22 21 21 20 19 19 18 17 16 16 16 16 16 15 15 14
16 15 14 14 15 14 13 11 9 9 11 9 6 6 6 6 7 7 8 8 9 10 11 13 15 18 22 22 22 21 21 20 19 18 16 16 16 16 17 17 17 16
16 14 13 13 14 12 11 10 8 8 9 7 5 5 6 6 6 6 7 7 7 8 9 11 13 15 19 22 22 21 21 21 20 19 17 16 16 16 17 18 17 17
15 13 12 12 13 12 10 8 8 8 7 7 5 5 6 7 6 5 6 7 6 6 8 9 10 12 15 18 21 21 21 21 21 20 18 17 16 15 15 16 16 16
15 13 11 11 11 11 9 8 7 7 7 6 6 6 6 6 7 5 5 6 6 6 6 7 8 10 12 15 18 20 22 21 21 21 20 19 18 16 15 15 15 14
14 12 12 11 11 10 9 8 8 8 7 6 6 7 7 6 6 6 4 5 6 5 5 6 7 8 9 12 14 17 20 21 22 21 21 21 20 18 16 16 15 13
13 12 12 12 11 10 8 7 7 8 8 8 7 7 7 6 6 5 4 4 4 5 5 5 6 7 8 9 11 13 16 19 20 21 21 21 21 20 19 18 16 14
12 11 12 12 12 10 9 8 7 8 9 9 8 7 7 7 6 5 4 3 3 4 4 4 5 5 6 8 9 11 13 15 18 19 20 20 20 20 20 19 18 16
11 11 12 13 12 11 10 9 8 8 9 9 8 8 7 6 6 6 5 4 3 3 3 4 4 4 5 6 8 9 11 13 15 17 18 19 19 19 19 20 19 19
10 11 12 13 13 12 11 10 10 9 9 10 10 9 8 8 7 7 6 5 4 3 3 3 4 4 4 5 6 8 9 11 13 15 16 17 18 18 18 19 20 20
9 9 10 11 11 11 11 11 11 10 10 11 11 11 10 9 9 8 7 6 6 5 4 3 3 3 4 4 5 6 8 9 11 13 15 16 17 17 18 19 20 21
8 9 9 10 10 11 10 11 11 11 11 11 12 12 11 10 10 10 9 8 7 6 5 4 4 4 4 4 5 5 6 7 10 12 13 14 15 16 17 19 20 21
8 8 9 9 10 11 10 10 11 11 12 12 12 11 11 11 12 12 11 9 8 7 7 6 5 5 5 4 4 5 5 6 8 10 12 13 14 15 16 18 19 20
9 9 9 9 10 10 10 9 10 10 11 12 12 11 11 11 12 12 12 10 9 9 8 7 6 6 5 5 4 5 5 5 7 9 10 11 12 13 15 16 18 18
Wind_Direction
319 312 307 299 292 288 284 283 280 279 278 276 274 275 275 274 271 267 264 260 256 253 248 246 246 245 243 240 237 236 235 235 235 237 239 240 243 245 244 242 241 240
320 314 309 303 297 292 286 281 280 279 279 279 277 276 274 272 269 265 262 259 256 253 249 247 248 246 242 239 237 237 236 235 235 237 239 240 242 243 243 243 242 240
322 316 311 307 302 295 289 285 283 282 282 282 281 278 275 272 268 264 261 257 252 250 249 247 247 245 242 237 236 236 236 237 237 238 240 241 243 243 242 242 243 241
325 319 313 309 304 297 293 287 283 283 281 279 279 279 278 275 269 264 261 260 256 251 247 244 243 242 239 235 234 235 236 238 239 239 240 241 241 243 241 239 242 243
329 323 315 308 302 297 294 287 283 283 281 279 280 282 281 277 271 266 262 261 261 258 252 245 240 238 233 230 230 232 235 237 237 237 239 240 240 241 239 237 240 242
331 326 317 309 304 299 294 288 285 283 282 283 284 281 280 281 277 270 263 261 260 259 256 248 240 235 229 224 224 229 233 235 236 237 239 239 239 238 236 236 240 242
330 326 318 311 307 302 297 293 288 283 283 283 280 277 280 284 280 271 263 262 261 256 251 246 241 236 228 221 220 227 232 234 236 239 239 239 238 239 238 239 242 243
328 325 317 311 308 303 299 294 287 281 279 277 276 279 282 280 274 268 263 262 262 256 246 241 239 235 227 220 218 224 230 234 237 238 239 239 239 240 241 242 244 247
326 322 314 310 308 304 300 293 286 281 278 276 277 280 282 278 274 272 269 265 264 258 246 239 236 233 227 221 221 225 230 233 235 237 240 241 239 240 243 243 246 250
323 318 312 309 309 307 303 297 293 290 286 282 278 278 281 283 280 275 272 268 266 260 247 238 233 231 228 224 225 228 232 234 236 238 243 244 242 244 246 247 248 250
320 314 310 312 312 309 306 304 302 296 290 284 279 280 283 284 280 275 274 272 269 264 252 238 229 228 228 226 226 228 231 236 239 241 246 248 248 247 247 249 249 248
317 312 312 316 315 313 313 312 305 296 293 291 288 288 286 281 279 278 278 277 272 266 258 243 230 227 228 229 229 229 230 235 240 242 246 250 253 251 246 244 244 244
314 311 314 318 316 318 319 313 306 303 305 307 304 297 289 284 285 286 284 283 279 270 263 252 237 229 229 231 232 231 231 235 239 242 244 247 249 248 243 240 242 247
313 311 315 317 317 322 322 314 309 310 310 312 310 300 293 290 290 291 292 292 287 277 267 259 248 237 232 233 233 233 234 235 238 241 242 242 241 242 244 247 250 253
312 311 313 316 317 320 322 316 313 312 309 311 309 296 289 284 283 291 301 301 294 284 273 264 257 247 239 236 236 236 237 236 237 238 239 239 239 241 247 252 255 256
312 311 311 312 314 316 320 319 316 311 308 310 305 294 287 281 279 290 303 306 303 291 279 269 261 254 246 241 240 239 239 238 238 237 237 239 240 241 246 251 254 256
310 308 307 307 308 312 315 316 314 309 306 308 301 293 288 282 284 291 299 302 304 297 284 272 263 257 250 245 242 241 241 241 240 240 239 241 241 241 244 248 250 254
307 304 302 299 300 306 309 307 307 306 306 304 292 285 286 280 280 285 292 299 304 302 291 276 265 259 254 250 246 243 243 242 242 242 241 242 243 240 239 243 247 250
305 298 294 292 293 299 303 298 292 292 296 297 288 284 287 282 275 276 285 298 306 309 302 286 273 265 258 254 249 245 245 243 243 243 242 243 243 239 236 237 241 245
303 294 286 285 287 292 299 297 286 279 283 288 287 283 282 280 275 271 272 289 309 315 314 304 289 276 265 259 253 246 244 242 241 241 241 241 241 239 236 234 234 238
304 294 285 282 283 286 292 294 289 279 273 274 276 275 271 268 268 270 276 290 305 314 316 313 304 293 277 264 256 250 245 243 241 239 238 238 238 236 235 233 231 232
305 296 287 284 283 284 287 290 291 286 275 267 266 267 264 259 259 264 274 287 296 300 304 306 308 307 294 276 263 254 248 245 244 242 239 236 234 232 231 230 230 230
306 300 293 290 288 288 288 288 287 285 279 271 266 264 261 258 257 256 259 267 277 284 287 288 297 305 305 297 282 265 255 251 248 246 243 238 233 230 228 226 227 228
304 303 301 300 298 296 294 290 285 280 276 271 267 264 261 259 257 255 252 252 261 272 278 280 284 292 298 301 297 283 270 260 253 250 247 242 236 231 227 225 225 226
304 307 306 305 303 301 299 297 291 282 275 271 268 265 262 258 257 255 252 250 253 262 270 275 277 280 284 289 293 292 284 269 258 254 252 249 242 235 230 227 225 225
305 308 307 305 303 302 303 303 300 292 284 276 270 266 262 259 257 256 255 254 253 253 260 269 273 273 275 276 276 282 286 276 265 258 255 254 249 242 237 232 229 227